QPF
0.00 0.00 0.00 0.00 0.00 0.00 0.00 0.00 0.01 0.01 0.00 0.00 0.00 0.00 0.00 0.00 0.00 0.00 0.00 0.00 0.00 0.01 0.01 0.00 0.00 0.00 0.00 0.00 0.01 0.01 0.01 0.01 0.01 0.01 0.01 0.00 0.00 0.00 0.01 0.01 0.01 0.00 0.00 0.00
0.00 0.00 0.00 0.00 0.00 0.00 0.00 0.00 0.01 0.01 0.00 0.00 0.00 0.00 0.01 0.00 0.00 0.00 0.00 0.00 0.00 0.00 0.00 0.00 0.00 0.00 0.00 0.00 0.00 0.01 0.01 0.01 0.01 0.01 0.00 0.00 0.00 0.00 0.00 0.00 0.00 0.00 0.00 0.00
0.01 0.01 0.01 0.01 0.01 0.00 0.00 0.00 0.01 0.01 0.01 0.01 0.00 0.00 0.01 0.00 0.00 0.01 0.01 0.00 0.00 0.00 0.00 0.00 0.00 0.00 0.00 0.00 0.00 0.01 0.01 0.01 0.01 0.00 0.00 0.00 0.00 0.00 0.00 0.00 0.00 0.00 0.00 0.00
0.02 0.02 0.02 0.02 0.01 0.00 0.00 0.00 0.01 0.01 0.02 0.01 0.01 0.00 0.00 0.00 0.00 0.00 0.00 0.00 0.01 0.00 0.00 0.00 0.00 0.00 0.00 0.00 0.00 0.01 0.01 0.01 0.00 0.00 0.00 0.00 0.00 0.00 0.00 0.00 0.00 0.00 0.00 0.00
0.03 0.03 0.02 0.02 0.02 0.02 0.01 0.01 0.01 0.02 0.02 0.02 0.01 0.00 0.01 0.00 0.00 0.00 0.00 0.00 0.00 0.00 0.00 0.00 0.00 0.00 0.00 0.00 0.00 0.00 0.00 0.00 0.00 0.00 0.00 0.01 0.01 0.01 0.01 0.01 0.00 0.00 0.00 0.00
0.05 0.03 0.03 0.02 0.02 0.03 0.03 0.03 0.03 0.03 0.03 0.02 0.01 0.02 0.02 0.01 0.01 0.00 0.00 0.00 0.00 0.00 0.00 0.00 0.00 0.00 0.00 0.00 0.00 0.00 0.00 0.01 0.01 0.00 0.00 0.00 0.01 0.01 0.01 0.01 0.01 0.01 0.01 0.00
0.04 0.04 0.03 0.01 0.01 0.03 0.05 0.05 0.03 0.04 0.03 0.02 0.01 0.02 0.02 0.01 0.01 0.01 0.00 0.00 0.00 0.00 0.00 0.00 0.00 0.00 0.00 0.00 0.00 0.00 0.00 0.00 0.00 0.00 0.01 0.01 0.01 0.01 0.01 0.01 0.01 0.01 0.01 0.01
0.05 0.05 0.04 0.02 0.03 0.07 0.06 0.03 0.03 0.03 0.03 0.02 0.01 0.01 0.01 0.01 0.00 0.00 0.00 0.00 0.00 0.00 0.00 0.00 0.00 0.00 0.01 0.01 0.01 0.00 0.00 0.00 0.01 0.01 0.02 0.02 0.01 0.01 0.01 0.01 0.02 0.02 0.02 0.01
0.06 0.05 0.04 0.03 0.04 0.05 0.04 0.03 0.02 0.03 0.05 0.02 0.02 0.01 0.01 0.01 0.00 0.00 0.00 0.00 0.00 0.00 0.00 0.00 0.00 0.00 0.00 0.00 0.01 0.01 0.01 0.00 0.01 0.01 0.02 0.02 0.01 0.01 0.01 0.01 0.02 0.01 0.01 0.01
0.05 0.04 0.04 0.04 0.03 0.03 0.02 0.03 0.02 0.03 0.05 0.06 0.03 0.02 0.01 0.01 0.00 0.00 0.00 0.01 0.00 0.00 0.00 0.00 0.00 0.00 0.00 0.00 0.01 0.01 0.01 0.01 0.01 0.01 0.01 0.01 0.02 0.01 0.01 0.01 0.01 0.01 0.01 0.01
0.07 0.06 0.06 0.06 0.04 0.03 0.03 0.03 0.02 0.03 0.04 0.04 0.03 0.01 0.02 0.02 0.01 0.01 0.01 0.01 0.02 0.02 0.01 0.01 0.01 0.00 0.01 0.01 0.01 0.01 0.02 0.01 0.02 0.02 0.02 0.02 0.01 0.02 0.02 0.02 0.02 0.01 0.01 0.01
0.12 0.11 0.08 0.06 0.06 0.05 0.03 0.03 0.02 0.02 0.02 0.02 0.01 0.01 0.02 0.02 0.02 0.01 0.02 0.03 0.04 0.04 0.03 0.02 0.02 0.02 0.01 0.02 0.02 0.02 0.02 0.02 0.02 0.02 0.02 0.02 0.03 0.03 0.03 0.02 0.02 0.02 0.01 0.02
0.11 0.10 0.07 0.05 0.05 0.04 0.03 0.03 0.03 0.02 0.03 0.02 0.01 0.01 0.01 0.02 0.02 0.01 0.01 0.02 0.03 0.04 0.03 0.03 0.03 0.03 0.03 0.04 0.04 0.04 0.04 0.03 0.03 0.03 0.03 0.03 0.04 0.03 0.03 0.03 0.02 0.02 0.02 0.02
0.09 0.08 0.06 0.04 0.04 0.04 0.04 0.04 0.03 0.03 0.03 0.03 0.02 0.02 0.02 0.03 0.02 0.02 0.02 0.03 0.04 0.05 0.06 0.05 0.04 0.04 0.05 0.06 0.05 0.05 0.06 0.05 0.04 0.03 0.03 0.04 0.03 0.03 0.03 0.03 0.03 0.03 0.03 0.03
0.09 0.07 0.05 0.04 0.03 0.05 0.05 0.03 0.03 0.03 0.02 0.02 0.02 0.02 0.02 0.03 0.03 0.03 0.03 0.03 0.03 0.03 0.03 0.05 0.06 0.05 0.04 0.05 0.05 0.05 0.05 0.05 0.05 0.04 0.04 0.04 0.04 0.03 0.03 0.03 0.04 0.04 0.04 0.03
0.05 0.04 0.04 0.03 0.03 0.05 0.04 0.03 0.03 0.03 0.03 0.03 0.02 0.03 0.03 0.03 0.03 0.03 0.03 0.03 0.03 0.02 0.02 0.02 0.03 0.03 0.03 0.03 0.04 0.04 0.05 0.05 0.05 0.05 0.05 0.04 0.04 0.04 0.05 0.05 0.05 0.04 0.04 0.03
0.06 0.06 0.06 0.05 0.04 0.05 0.05 0.04 0.05 0.05 0.05 0.06 0.07 0.05 0.04 0.04 0.03 0.04 0.04 0.05 0.04 0.03 0.03 0.03 0.03 0.03 0.03 0.02 0.03 0.03 0.04 0.04 0.04 0.05 0.05 0.05 0.05 0.05 0.04 0.04 0.04 0.04 0.04 0.03
0.07 0.07 0.07 0.06 0.04 0.04 0.04 0.05 0.05 0.06 0.07 0.08 0.12 0.12 0.10 0.08 0.07 0.06 0.06 0.05 0.05 0.04 0.04 0.04 0.04 0.03 0.02 0.02 0.02 0.02 0.02 0.02 0.03 0.03 0.03 0.03 0.03 0.03 0.02 0.02 0.03 0.03 0.03 0.03
0.11 0.09 0.06 0.05 0.05 0.05 0.06 0.06 0.07 0.07 0.06 0.07 0.10 0.14 0.15 0.13 0.11 0.09 0.07 0.06 0.06 0.05 0.05 0.04 0.04 0.03 0.03 0.03 0.03 0.02 0.02 0.02 0.02 0.02 0.02 0.03 0.03 0.03 0.02 0.02 0.02 0.02 0.01 0.01
0.11 0.10 0.08 0.07 0.07 0.07 0.07 0.06 0.05 0.05 0.05 0.05 0.07 0.10 0.12 0.12 0.11 0.09 0.06 0.06 0.07 0.07 0.06 0.05 0.04 0.04 0.04 0.03 0.03 0.03 0.03 0.03 0.03 0.03 0.03 0.03 0.03 0.02 0.02 0.02 0.02 0.02 0.02 0.01
0.12 0.09 0.07 0.07 0.06 0.06 0.06 0.05 0.03 0.03 0.03 0.03 0.03 0.04 0.06 0.07 0.07 0.08 0.08 0.07 0.06 0.05 0.05 0.05 0.04 0.04 0.03 0.04 0.04 0.04 0.05 0.05 0.05 0.04 0.04 0.04 0.04 0.03 0.03 0.03 0.03 0.03 0.03 0.02
0.16 0.10 0.07 0.07 0.07 0.07 0.07 0.06 0.03 0.02 0.01 0.01 0.01 0.02 0.02 0.03 0.05 0.06 0.06 0.06 0.06 0.05 0.04 0.04 0.04 0.03 0.03 0.04 0.04 0.05 0.05 0.05 0.04 0.03 0.03 0.04 0.04 0.03 0.03 0.03 0.03 0.03 0.03 0.03
0.17 0.11 0.09 0.10 0.09 0.07 0.07 0.04 0.01 0.01 0.01 0.01 0.01 0.01 0.02 0.02 0.03 0.04 0.04 0.04 0.04 0.04 0.03 0.03 0.04 0.04 0.03 0.03 0.03 0.03 0.04 0.05 0.04 0.04 0.03 0.03 0.03 0.03 0.02 0.02 0.02 0.02 0.03 0.03
0.13 0.11 0.10 0.09 0.07 0.05 0.05 0.04 0.02 0.01 0.01 0.00 0.00 0.01 0.01 0.01 0.01 0.02 0.02 0.02 0.02 0.02 0.02 0.01 0.01 0.01 0.01 0.01 0.01 0.02 0.02 0.03 0.03 0.03 0.03 0.03 0.03 0.03 0.04 0.04 0.04 0.04 0.04 0.04
0.09 0.08 0.07 0.06 0.04 0.03 0.03 0.02 0.01 0.01 0.01 0.01 0.00 0.01 0.01 0.01 0.01 0.01 0.01 0.01 0.00 0.00 0.00 0.00 0.00 0.00 0.00 0.00 0.00 0.00 0.01 0.01 0.01 0.01 0.01 0.02 0.02 0.02 0.03 0.03 0.03 0.03 0.03 0.03
0.07 0.05 0.05 0.03 0.02 0.02 0.02 0.01 0.01 0.01 0.01 0.01 0.01 0.01 0.01 0.01 0.00 0.00 0.00 0.00 0.00 0.00 0.00 0.00 0.00 0.00 0.00 0.00 0.00 0.00 0.00 0.00 0.00 0.00 0.00 0.01 0.01 0.01 0.02 0.02 0.02 0.02 0.02 0.02
0.04 0.04 0.02 0.01 0.01 0.01 0.01 0.01 0.01 0.01 0.01 0.01 0.00 0.00 0.00 0.00 0.00 0.00 0.00 0.00 0.00 0.00 0.00 0.00 0.00 0.00 0.00 0.00 0.00 0.00 0.00 0.00 0.00 0.00 0.00 0.00 0.01 0.01 0.01 0.01 0.01 0.02 0.02 0.02
MSLP
1004.66 1004.95 1005.21 1005.45 1005.65 1005.81 1005.91 1005.92 1005.83 1005.64 1005.36 1005.03 1004.68 1004.38 1004.17 1004.10 1004.19 1004.44 1004.84 1005.37 1005.97 1006.61 1007.25 1007.86 1008.43 1008.97 1009.47 1009.96 1010.45 1010.94 1011.43 1011.93 1012.42 1012.89 1013.34 1013.77 1014.17 1014.55 1014.93 1015.30 1015.69 1016.08 1016.47 1016.86
1004.84 1005.07 1005.23 1005.34 1005.39 1005.39 1005.36 1005.28 1005.16 1005.00 1004.79 1004.57 1004.36 1004.18 1004.07 1004.05 1004.14 1004.35 1004.66 1005.06 1005.52 1006.03 1006.57 1007.11 1007.66 1008.21 1008.75 1009.30 1009.86 1010.43 1010.99 1011.54 1012.08 1012.58 1013.06 1013.49 1013.90 1014.29 1014.67 1015.05 1015.43 1015.82 1016.21 1016.60
1005.14 1005.34 1005.42 1005.41 1005.33 1005.20 1005.06 1004.90 1004.74 1004.58 1004.43 1004.29 1004.18 1004.10 1004.06 1004.08 1004.15 1004.29 1004.50 1004.76 1005.08 1005.45 1005.86 1006.31 1006.80 1007.33 1007.89 1008.48 1009.10 1009.73 1010.36 1010.97 1011.55 1012.09 1012.59 1013.05 1013.48 1013.88 1014.28 1014.67 1015.06 1015.46 1015.86 1016.25
1005.52 1005.68 1005.71 1005.62 1005.44 1005.22 1004.99 1004.76 1004.57 1004.41 1004.29 1004.21 1004.17 1004.15 1004.15 1004.18 1004.23 1004.29 1004.39 1004.51 1004.68 1004.89 1005.16 1005.50 1005.90 1006.38 1006.93 1007.53 1008.18 1008.85 1009.53 1010.19 1010.81 1011.39 1011.93 1012.42 1012.87 1013.30 1013.72 1014.13 1014.55 1014.97 1015.39 1015.79
1005.86 1006.00 1006.00 1005.87 1005.64 1005.36 1005.08 1004.81 1004.59 1004.43 1004.33 1004.28 1004.28 1004.29 1004.32 1004.34 1004.34 1004.34 1004.33 1004.32 1004.34 1004.40 1004.52 1004.73 1005.04 1005.44 1005.94 1006.52 1007.17 1007.86 1008.56 1009.25 1009.91 1010.52 1011.09 1011.61 1012.10 1012.56 1013.00 1013.45 1013.90 1014.34 1014.78 1015.20
1006.07 1006.20 1006.19 1006.05 1005.81 1005.52 1005.22 1004.94 1004.71 1004.55 1004.46 1004.43 1004.44 1004.47 1004.49 1004.49 1004.46 1004.38 1004.27 1004.15 1004.03 1003.96 1003.95 1004.04 1004.23 1004.55 1004.98 1005.52 1006.14 1006.82 1007.53 1008.23 1008.91 1009.56 1010.15 1010.70 1011.22 1011.71 1012.19 1012.67 1013.14 1013.62 1014.08 1014.52
1006.09 1006.21 1006.21 1006.08 1005.86 1005.59 1005.31 1005.04 1004.82 1004.67 1004.58 1004.55 1004.56 1004.58 1004.59 1004.56 1004.48 1004.34 1004.15 1003.94 1003.72 1003.54 1003.42 1003.39 1003.49 1003.72 1004.08 1004.56 1005.15 1005.81 1006.50 1007.22 1007.91 1008.57 1009.19 1009.77 1010.31 1010.83 1011.33 1011.83 1012.33 1012.83 1013.32 1013.78
1005.91 1006.01 1006.01 1005.91 1005.73 1005.51 1005.26 1005.03 1004.83 1004.69 1004.60 1004.56 1004.54 1004.54 1004.51 1004.44 1004.31 1004.13 1003.88 1003.60 1003.31 1003.04 1002.84 1002.74 1002.76 1002.91 1003.22 1003.65 1004.20 1004.84 1005.53 1006.24 1006.94 1007.62 1008.26 1008.86 1009.42 1009.96 1010.48 1011.00 1011.51 1012.03 1012.53 1013.01
1005.57 1005.63 1005.62 1005.55 1005.42 1005.25 1005.05 1004.86 1004.69 1004.55 1004.45 1004.38 1004.32 1004.27 1004.19 1004.07 1003.89 1003.66 1003.37 1003.04 1002.70 1002.40 1002.15 1002.00 1001.97 1002.09 1002.35 1002.76 1003.29 1003.91 1004.59 1005.31 1006.03 1006.72 1007.38 1008.00 1008.58 1009.13 1009.66 1010.18 1010.71 1011.23 1011.75 1012.25
1005.14 1005.14 1005.12 1005.06 1004.97 1004.85 1004.70 1004.55 1004.39 1004.25 1004.12 1004.00 1003.89 1003.76 1003.62 1003.43 1003.19 1002.91 1002.58 1002.22 1001.87 1001.54 1001.28 1001.11 1001.08 1001.18 1001.43 1001.83 1002.36 1002.99 1003.69 1004.42 1005.15 1005.87 1006.55 1007.18 1007.78 1008.34 1008.88 1009.41 1009.94 1010.47 1010.99 1011.51
1004.73 1004.66 1004.60 1004.55 1004.48 1004.39 1004.27 1004.14 1003.99 1003.83 1003.66 1003.48 1003.29 1003.08 1002.84 1002.57 1002.27 1001.93 1001.56 1001.18 1000.82 1000.49 1000.24 1000.08 1000.06 1000.18 1000.44 1000.86 1001.41 1002.06 1002.78 1003.54 1004.30 1005.05 1005.75 1006.41 1007.02 1007.60 1008.14 1008.68 1009.21 1009.74 1010.28 1010.81
1004.44 1004.29 1004.18 1004.10 1004.04 1003.96 1003.87 1003.75 1003.59 1003.40 1003.18 1002.92 1002.64 1002.33 1002.00 1001.64 1001.26 1000.86 1000.45 1000.04 999.67 999.35 999.11 998.98 998.99 999.13 999.43 999.88 1000.46 1001.14 1001.90 1002.69 1003.49 1004.27 1005.01 1005.69 1006.32 1006.91 1007.47 1008.01 1008.55 1009.09 1009.64 1010.18
1004.33 1004.09 1003.93 1003.82 1003.74 1003.67 1003.58 1003.46 1003.29 1003.07 1002.80 1002.48 1002.11 1001.71 1001.28 1000.83 1000.36 999.90 999.44 999.01 998.62 998.30 998.08 997.97 998.00 998.18 998.50 998.98 999.59 1000.30 1001.09 1001.92 1002.75 1003.57 1004.34 1005.05 1005.71 1006.32 1006.90 1007.46 1008.00 1008.55 1009.11 1009.67
1004.43 1004.12 1003.90 1003.75 1003.65 1003.57 1003.49 1003.37 1003.19 1002.95 1002.65 1002.28 1001.85 1001.37 1000.86 1000.33 999.79 999.26 998.76 998.29 997.89 997.56 997.34 997.24 997.28 997.47 997.81 998.30 998.93 999.66 1000.46 1001.31 1002.18 1003.02 1003.82 1004.56 1005.25 1005.89 1006.49 1007.06 1007.62 1008.18 1008.74 1009.31
1004.74 1004.36 1004.08 1003.90 1003.78 1003.70 1003.62 1003.52 1003.36 1003.13 1002.82 1002.42 1001.96 1001.44 1000.88 1000.30 999.71 999.13 998.58 998.08 997.65 997.30 997.07 996.96 996.99 997.17 997.50 997.98 998.60 999.32 1000.13 1000.98 1001.85 1002.71 1003.53 1004.30 1005.01 1005.67 1006.29 1006.88 1007.45 1008.02 1008.59 1009.15
1005.23 1004.79 1004.46 1004.25 1004.12 1004.05 1004.00 1003.93 1003.80 1003.60 1003.32 1002.95 1002.50 1001.98 1001.41 1000.80 1000.18 999.58 999.00 998.47 998.01 997.64 997.38 997.24 997.23 997.38 997.68 998.12 998.70 999.39 1000.17 1001.00 1001.85 1002.70 1003.53 1004.30 1005.03 1005.71 1006.34 1006.94 1007.52 1008.09 1008.66 1009.21
1005.85 1005.36 1005.00 1004.77 1004.65 1004.60 1004.58 1004.56 1004.49 1004.36 1004.14 1003.82 1003.42 1002.93 1002.38 1001.79 1001.18 1000.57 999.98 999.43 998.95 998.55 998.26 998.08 998.03 998.13 998.36 998.75 999.26 999.89 1000.61 1001.40 1002.21 1003.03 1003.84 1004.61 1005.33 1006.01 1006.65 1007.25 1007.83 1008.39 1008.93 1009.46
1006.56 1006.04 1005.66 1005.42 1005.31 1005.29 1005.32 1005.35 1005.36 1005.31 1005.17 1004.93 1004.60 1004.18 1003.68 1003.13 1002.55 1001.96 1001.38 1000.83 1000.34 999.92 999.60 999.38 999.28 999.31 999.48 999.79 1000.23 1000.78 1001.42 1002.14 1002.89 1003.66 1004.43 1005.17 1005.87 1006.54 1007.17 1007.76 1008.32 1008.86 1009.37 1009.86
1007.33 1006.79 1006.40 1006.17 1006.07 1006.08 1006.15 1006.25 1006.33 1006.35 1006.29 1006.14 1005.88 1005.54 1005.11 1004.62 1004.08 1003.53 1002.98 1002.45 1001.96 1001.54 1001.20 1000.95 1000.81 1000.79 1000.90 1001.13 1001.49 1001.95 1002.50 1003.13 1003.81 1004.52 1005.22 1005.92 1006.59 1007.22 1007.82 1008.39 1008.92 1009.42 1009.89 1010.33
1008.13 1007.59 1007.20 1006.98 1006.89 1006.92 1007.03 1007.17 1007.30 1007.38 1007.38 1007.30 1007.11 1006.82 1006.46 1006.03 1005.55 1005.05 1004.54 1004.04 1003.58 1003.18 1002.84 1002.59 1002.43 1002.37 1002.43 1002.60 1002.88 1003.26 1003.73 1004.27 1004.86 1005.49 1006.13 1006.77 1007.38 1007.98 1008.53 1009.06 1009.55 1010.00 1010.43 1010.82
1008.95 1008.42 1008.05 1007.83 1007.75 1007.80 1007.91 1008.07 1008.21 1008.32 1008.35 1008.30 1008.16 1007.92 1007.60 1007.22 1006.80 1006.34 1005.89 1005.44 1005.03 1004.66 1004.36 1004.12 1003.97 1003.90 1003.93 1004.06 1004.28 1004.59 1004.98 1005.44 1005.95 1006.50 1007.06 1007.63 1008.19 1008.73 1009.23 1009.71 1010.16 1010.56 1010.94 1011.28
1009.78 1009.28 1008.93 1008.72 1008.65 1008.69 1008.79 1008.93 1009.06 1009.16 1009.19 1009.14 1009.00 1008.78 1008.49 1008.15 1007.77 1007.37 1006.97 1006.59 1006.24 1005.93 1005.68 1005.49 1005.36 1005.31 1005.34 1005.45 1005.63 1005.89 1006.22 1006.60 1007.04 1007.50 1007.99 1008.48 1008.98 1009.45 1009.91 1010.33 1010.73 1011.09 1011.42 1011.71
1010.61 1010.17 1009.85 1009.66 1009.58 1009.60 1009.67 1009.77 1009.86 1009.92 1009.91 1009.83 1009.68 1009.46 1009.18 1008.87 1008.53 1008.18 1007.84 1007.53 1007.26 1007.02 1006.84 1006.71 1006.64 1006.63 1006.67 1006.78 1006.94 1007.16 1007.43 1007.75 1008.11 1008.50 1008.91 1009.33 1009.75 1010.17 1010.56 1010.94 1011.29 1011.61 1011.90 1012.15
1011.46 1011.09 1010.81 1010.64 1010.56 1010.55 1010.59 1010.63 1010.67 1010.66 1010.61 1010.49 1010.31 1010.08 1009.81 1009.52 1009.21 1008.92 1008.65 1008.41 1008.22 1008.07 1007.97 1007.91 1007.90 1007.93 1008.00 1008.11 1008.26 1008.45 1008.67 1008.93 1009.22 1009.53 1009.86 1010.21 1010.56 1010.91 1011.25 1011.58 1011.88 1012.17 1012.42 1012.64
1012.35 1012.05 1011.82 1011.68 1011.60 1011.57 1011.57 1011.57 1011.55 1011.49 1011.39 1011.23 1011.03 1010.79 1010.53 1010.26 1010.01 1009.77 1009.56 1009.40 1009.29 1009.22 1009.19 1009.20 1009.24 1009.31 1009.41 1009.52 1009.66 1009.81 1009.98 1010.18 1010.40 1010.63 1010.89 1011.16 1011.44 1011.72 1012.01 1012.28 1012.55 1012.79 1013.01 1013.21
1013.28 1013.06 1012.90 1012.79 1012.72 1012.68 1012.65 1012.62 1012.56 1012.46 1012.33 1012.16 1011.96 1011.73 1011.50 1011.26 1011.05 1010.88 1010.74 1010.64 1010.60 1010.59 1010.62 1010.68 1010.76 1010.86 1010.96 1011.06 1011.17 1011.29 1011.41 1011.54 1011.68 1011.83 1012.01 1012.20 1012.41 1012.63 1012.85 1013.08 1013.30 1013.50 1013.69 1013.86
1014.29 1014.15 1014.05 1013.98 1013.92 1013.88 1013.85 1013.80 1013.72 1013.62 1013.49 1013.33 1013.15 1012.95 1012.76 1012.58 1012.43 1012.30 1012.23 1012.19 1012.19 1012.23 1012.29 1012.37 1012.46 1012.56 1012.64 1012.72 1012.79 1012.85 1012.91 1012.97 1013.04 1013.12 1013.22 1013.33 1013.46 1013.61 1013.78 1013.94 1014.11 1014.27 1014.42 1014.55
Thickness
5731 5736 5736 5735 5736 5738 5735 5738 5736 5743 5749 5757 5763 5766 5767 5768 5766 5763 5760 5758 5757 5753 5751 5748 5746 5743 5741 5739 5736 5733 5728 5725 5723 5721 5718 5716 5713 5711 5709 5707 5706 5704 5703 5702
5718 5728 5728 5725 5733 5736 5736 5738 5738 5741 5744 5759 5764 5766 5764 5764 5763 5760 5759 5759 5757 5755 5752 5749 5747 5744 5742 5739 5737 5733 5729 5726 5724 5721 5718 5715 5713 5711 5708 5706 5705 5704 5702 5701
5707 5719 5715 5711 5730 5733 5734 5738 5737 5734 5744 5753 5754 5755 5758 5761 5762 5761 5761 5760 5758 5756 5754 5751 5750 5747 5743 5741 5737 5734 5730 5727 5725 5722 5719 5716 5714 5711 5709 5706 5705 5703 5702 5701
5702 5701 5686 5719 5738 5736 5732 5734 5738 5738 5742 5747 5749 5755 5760 5762 5761 5761 5761 5760 5760 5759 5756 5755 5753 5750 5746 5743 5738 5734 5731 5729 5726 5723 5720 5717 5715 5712 5709 5707 5705 5703 5701 5700
5692 5691 5699 5715 5725 5725 5721 5720 5732 5732 5736 5743 5750 5753 5756 5761 5762 5761 5763 5763 5762 5762 5761 5757 5755 5751 5747 5743 5740 5736 5734 5731 5729 5726 5722 5719 5715 5713 5711 5708 5705 5703 5701 5700
5684 5679 5684 5705 5719 5724 5718 5708 5723 5727 5729 5735 5742 5739 5746 5756 5759 5760 5761 5762 5761 5762 5761 5757 5755 5752 5747 5744 5740 5738 5737 5735 5732 5728 5724 5721 5718 5714 5711 5708 5705 5703 5702 5700
5678 5678 5692 5705 5713 5714 5696 5698 5713 5720 5724 5728 5732 5737 5745 5751 5753 5755 5757 5758 5759 5759 5758 5756 5755 5751 5746 5744 5742 5742 5740 5736 5733 5729 5725 5721 5717 5713 5710 5707 5705 5702 5700 5698
5676 5672 5679 5698 5703 5696 5694 5702 5707 5712 5718 5722 5727 5733 5739 5743 5746 5749 5752 5753 5755 5754 5753 5754 5753 5749 5746 5745 5745 5742 5739 5735 5731 5728 5725 5722 5716 5712 5709 5705 5702 5699 5697 5695
5675 5676 5683 5691 5690 5692 5695 5696 5700 5706 5713 5717 5721 5727 5732 5736 5739 5742 5745 5747 5749 5749 5748 5749 5749 5748 5744 5744 5743 5740 5736 5732 5729 5726 5723 5721 5715 5710 5706 5702 5701 5699 5697 5695
5668 5673 5677 5682 5685 5687 5690 5692 5697 5703 5707 5712 5715 5721 5725 5729 5732 5735 5738 5740 5742 5743 5743 5743 5744 5744 5743 5742 5740 5736 5732 5729 5726 5723 5719 5717 5714 5711 5708 5705 5702 5700 5698 5695
5660 5665 5670 5674 5677 5680 5683 5688 5693 5699 5704 5709 5712 5714 5718 5721 5724 5727 5730 5733 5735 5736 5736 5736 5738 5738 5739 5738 5735 5731 5729 5726 5724 5721 5718 5714 5710 5710 5707 5705 5704 5699 5698 5696
5653 5659 5660 5663 5670 5675 5677 5680 5686 5691 5696 5703 5706 5708 5712 5714 5717 5720 5723 5725 5727 5728 5729 5730 5731 5730 5731 5731 5729 5727 5724 5721 5721 5718 5714 5711 5707 5703 5697 5697 5693 5689 5687 5686
5650 5655 5657 5660 5665 5669 5672 5676 5681 5685 5689 5694 5698 5702 5705 5707 5709 5712 5715 5717 5718 5720 5721 5722 5723 5723 5724 5725 5724 5721 5720 5717 5716 5714 5711 5707 5704 5700 5695 5686 5681 5679 5676 5674
5646 5648 5650 5655 5660 5664 5667 5671 5675 5680 5683 5686 5690 5693 5696 5698 5701 5703 5704 5707 5710 5711 5712 5714 5714 5715 5716 5717 5716 5713 5713 5710 5709 5708 5706 5703 5699 5696 5693 5688 5682 5677 5670 5664
5641 5645 5647 5652 5656 5659 5663 5666 5668 5670 5674 5677 5680 5683 5686 5687 5689 5691 5694 5697 5699 5701 5702 5703 5704 5704 5707 5707 5706 5706 5705 5704 5701 5700 5698 5695 5693 5689 5687 5683 5679 5674 5670 5661
5635 5639 5643 5646 5650 5653 5656 5658 5660 5661 5664 5667 5670 5673 5675 5678 5678 5680 5682 5685 5686 5687 5688 5690 5692 5694 5696 5697 5696 5695 5694 5691 5691 5690 5688 5685 5683 5680 5676 5673 5669 5666 5662 5658
5629 5632 5635 5639 5642 5644 5646 5649 5651 5653 5655 5658 5660 5663 5665 5667 5667 5668 5669 5671 5673 5674 5675 5677 5679 5682 5684 5685 5686 5686 5685 5681 5678 5679 5678 5676 5672 5669 5666 5663 5660 5657 5653 5648
5627 5629 5632 5634 5636 5637 5638 5640 5641 5642 5644 5647 5650 5651 5652 5653 5654 5654 5656 5658 5660 5661 5662 5664 5666 5669 5671 5673 5674 5675 5674 5672 5669 5668 5666 5663 5660 5658 5655 5652 5649 5645 5642 5637
5622 5624 5626 5628 5629 5629 5629 5630 5631 5632 5634 5636 5638 5638 5638 5639 5641 5641 5643 5645 5646 5646 5647 5650 5651 5655 5657 5658 5659 5660 5660 5658 5656 5653 5650 5645 5646 5645 5642 5639 5636 5633 5630 5626
5615 5617 5619 5620 5621 5620 5620 5621 5622 5622 5623 5625 5626 5626 5626 5627 5628 5629 5630 5630 5630 5631 5634 5636 5639 5641 5642 5643 5644 5646 5646 5644 5642 5640 5637 5635 5633 5630 5628 5626 5622 5619 5616 5612
5607 5608 5610 5611 5611 5611 5611 5612 5613 5613 5613 5615 5615 5614 5614 5615 5616 5618 5619 5618 5615 5617 5621 5623 5625 5626 5627 5628 5629 5630 5629 5628 5627 5625 5623 5620 5618 5615 5613 5610 5607 5604 5600 5597
5596 5598 5600 5600 5601 5601 5601 5602 5603 5603 5603 5604 5605 5605 5605 5604 5605 5605 5604 5603 5603 5603 5608 5609 5609 5607 5610 5613 5615 5615 5614 5612 5611 5609 5607 5605 5603 5600 5597 5594 5591 5587 5583 5580
5586 5587 5589 5590 5592 5592 5592 5593 5593 5593 5593 5594 5594 5595 5596 5596 5597 5596 5593 5591 5592 5590 5593 5592 5590 5592 5595 5601 5601 5600 5599 5597 5596 5594 5591 5589 5587 5584 5581 5577 5574 5570 5566 5563
5575 5576 5578 5580 5582 5582 5581 5581 5582 5582 5583 5584 5584 5585 5586 5586 5585 5584 5582 5577 5577 5579 5579 5575 5575 5578 5582 5587 5586 5584 5582 5580 5579 5577 5575 5573 5570 5567 5564 5560 5557 5553 5550 5547
5565 5567 5569 5571 5571 5571 5571 5572 5573 5574 5575 5575 5575 5575 5576 5575 5574 5572 5570 5568 5566 5568 5569 5566 5565 5566 5571 5571 5569 5568 5565 5563 5561 5560 5558 5555 5553 5550 5546 5543 5540 5537 5534 5531
5558 5560 5560 5561 5561 5563 5565 5565 5566 5565 5565 5565 5564 5564 5563 5562 5561 5561 5560 5559 5558 5557 5559 5558 5557 5556 5557 5556 5553 5551 5549 5547 5546 5544 5541 5538 5535 5532 5530 5526 5523 5521 5518 5515
5551 5551 5551 5552 5553 5554 5555 5555 5555 5554 5554 5553 5552 5552 5552 5551 5551 5550 5549 5548 5547 5547 5546 5545 5544 5543 5541 5539 5536 5534 5532 5530 5527 5525 5523 5520 5518 5515 5513 5510 5508 5505 5502 5500